Cosmos 839 Rocket - Orbit

View from above orbital plane
View from above orbital plane
View from above satellite
View from above satellite

Ground track
Ground track

The orbit data is extracted from the following two-line orbital elements,

1 09013U 76067B   13166.00372061 -.00000032  00000-0  80228-4 0  3900
2 09013 065.8675 327.2423 0721735 286.0797 226.8362 12.35291236665919
Epoch (UTC): 15 June 2013 00:05:21
Eccentricity: 0.0721735
inclination: 65.8675°
perigee height: 956 km
apogee height: 2097 km
right ascension of ascending node: 327.2423°
argument of perigee: 286.0797°
revolutions per day: 12.35291236
mean anomaly at epoch: 226.8362°
orbit number at epoch: 66591

The dashed part of the orbit path shows where the satellite is in the earth's shadow,  

Developed and maintained by Chris Peat, Heavens-Above GmbH. Please read the updated FAQ before sending e-mail. Imprint. DLR